Regional Weather Roundup
Issued by NWS

Home | Current Version | Previous Version | Graphics & Text | Print | Product List | Glossary On
Versions: 1 2 3 4 5 6 7 8 9 10 11 12 13 14 15 16 17 18 19 20 21 22 23 24 25 26 27 28 29 30 31 32 33 34 35 36 37 38 39 40 41 42 43 44 45 46 47 48 49 50
000
ASUS43 KBIS 180202
RWRND

NORTH DAKOTA REGIONAL WEATHER ROUNDUP
NATIONAL WEATHER SERVICE BISMARCK ND
800 PM CST SUN DEC 17 2017

NOTE: "FAIR" INDICATES FEW OR NO CLOUDS BELOW 12,000 FEET WITH NO
SIGNIFICANT WEATHER AND/OR OBSTRUCTIONS TO VISIBILITY.


NDZ001>003-009>011-017-180300-
NORTHWEST NORTH DAKOTA

CITY           SKY/WX    TMP DP  RH WIND       PRES   REMARKS
WILLISTON      MOCLDY    31  20  63 SW6       29.70S
MINOT          CLOUDY    36  26  67 SW10      29.67S
MINOT AFB      MOCLDY    34  23  63 SW14      29.65F
$$

NDZ018>021-031>035-040>046-180300-
SOUTHWEST NORTH DAKOTA

CITY           SKY/WX    TMP DP  RH WIND       PRES   REMARKS
BISMARCK       CLOUDY    36  21  54 SW9       29.77F
DICKINSON      CLOUDY    35  20  54 W15       29.71S
GARRISON         N/A     36  26  67 W14       29.70S
HETTINGER ARPT CLOUDY    33  22  63 W8        29.78S
$$

NDZ004>008-012>016-024-026-027-054-180300-
NORTHEAST NORTH DAKOTA

CITY           SKY/WX    TMP DP  RH WIND       PRES   REMARKS
GRAND FORKS    FOG       20  20 100 S9        29.80F VSB 1/4 WCI   9
GRND FRKS AFB  CLEAR     19  17  93 S8        29.79F WCI   9
DEVILS LAKE    PTCLDY    32  24  72 S13       29.72F
$$

NDZ022-023-025-028>030-036>039-047>053-180300-
SOUTHEAST NORTH DAKOTA

CITY           SKY/WX    TMP DP  RH WIND       PRES   REMARKS
FARGO          FOG       31  30  96 S10       29.85F VSB 1/2
JAMESTOWN      PTCLDY    29  23  78 S9        29.79F
$$




USA.gov is the U.S. government's official web portal to all federal, state and local government web resources and services.